Regional Weather Roundup
Issued by NWS Bismarck, ND

Home | Current Version | Previous Version | Text Only | Print | Product List | Glossary On
Versions: 1 2 3 4 5 6 7 8 9 10 11 12 13 14 15 16 17 18 19 20 21 22 23 24 25 26 27 28 29 30 31 32 33 34 35 36 37 38 39 40 41 42 43 44 45 46 47 48 49 50
000
ASUS43 KBIS 300910
RWRBIS

NWR BROADCAST TEXT
NATIONAL WEATHER SERVICE BISMARCK ND
400 AM CDT SAT APR 30 2016

NOTE: "FAIR" INDICATES FEW OR NO CLOUDS BELOW 12,000 FEET WITH NO
SIGNIFICANT WEATHER AND/OR OBSTRUCTIONS TO VISIBILITY.


CITY           SKY/WX    TMP DP  RH WIND       PRES   REMARKS
WILLISTON      CLEAR     43  29  57 CALM      30.18R
MINOT          CLEAR     37  27  67 NW3       30.20R
MINOT AFB      CLEAR     40  28  62 E10       30.19S
BISMARCK       CLOUDY    39  32  76 NE6       30.14R
DICKINSON      PTCLDY    35  28  75 NE8       30.11S
GARRISON         N/A     43  27  53 NE10      30.16S
HETTINGER ARPT MOCLDY    41  34  76 N10       30.10R
JAMESTOWN      CLEAR     41  32  70 NE13      30.12S
BEACH          CLOUDY    37  34  87 E9        30.16R
CARRINGTON     FAIR      41  32  70 NE10      30.18S
HAZEN          CLOUDY    36  28  75 NE3       30.18S
LINTON         FAIR      37  37 100 E5        30.12F
MANDAN         FAIR      39  32  75 E7        30.14S
OAKES            N/A    N/A N/A N/A MISG        N/A
RUGBY          FAIR      36  28  75 E9        30.22R
STANLEY        FAIR      37  30  75 NE6       30.22R
WATFORD CITY   FAIR      32  28  86 SE7       30.18R
$$

CITY           SKY/WX    TMP DP  RH WIND       PRES   REMARKS
GRAND FORKS    CLEAR     39  31  72 E9        30.21R
GRAND FORKS AF CLEAR     34  28  81 N5        30.22R
DEVILS LAKE    CLEAR     37  31  78 NE9       30.21R
FARGO          CLEAR     45  32  60 E9        30.17R
CANDO          FAIR      36  27  69 NE10      30.24F
CAVALIER       FAIR      39  32  75 N6        30.25R
GRAFTON        FAIR      36  30  80 N7        30.25R
GWINNER        FAIR      37  36  93 N7        30.13R
LANGDON        FAIR      36  28  75 NE7       30.24R
ROLLA          FAIR      34  25  69 N5        30.25S
WALHALLA       FAIR      36  28  75 NW7       30.27R
$$

CITY           SKY/WX    TMP DP  RH WIND       PRES   REMARKS
ABERDEEN       PTCLDY    39  36  89 N8        30.07F
MOBRIDGE       PTCLDY    39  37  92 N5        30.06R
BUFFALO          N/A     40  34  79 N6        30.01S
RAPID CITY     CLOUDY    40  37  89 N10       30.02F
GLASGOW        CLOUDY    45  35  68 NE9       30.14R
SIDNEY         CLEAR     37  28  70 N3        30.17R
WOLF POINT     CLOUDY    44  33  65 NE9       30.16R
GLENDIVE       CLOUDY    43  34  70 NE10      30.15S
MILES CITY     CLOUDY    45  37  73 NE3       30.09R
BAKER          CLOUDY    39  33  79 CALM      30.10S
$$

CITY           SKY/WX    TMP DP  RH WIND       PRES   REMARKS
BILLINGS       CLOUDY    41  37  86 NE7       30.05S
GREAT FALLS    CLOUDY    39  34  82 SE3       30.05R
REGINA         CLEAR     41  23  48 E14       30.24S
ESTEVAN        CLEAR     36  25  64 E8        30.23R
$$





USA.gov is the U.S. government's official web portal to all federal, state and local government web resources and services.